DL1NER Weather Reports


time (UTC)temp
F
wind
direction
speed
knots
gust
knots
rain 1hr
in
rain 24hr
in
rain mn
in
humidity
%
barometer
mb
20260506103013 65 264 1.7 5.2 0.00 0.00 0.00 66 1006.1
20260506102013 66 206 0.9 4.3 0.00 0.00 0.00 63 1006.1
20260506101013 65 184 1.7 6.1 0.00 0.00 0.00 63 1006.2
20260506100013 65 188 0.9 3.5 0.00 0.00 0.00 67 1006.2
20260506095013 65 140 2.6 6.1 0.00 0.00 0.00 68 1006.2
20260506094013 64 249 3.5 6.1 0.00 0.00 0.00 67 1006.2
20260506093013 62 194 2.6 7.0 0.00 0.00 0.00 68 1006.2
20260506092013 62 227 2.6 6.1 0.00 0.00 0.00 73 1006.2
20260506091013 62 249 2.6 7.0 0.00 0.00 0.00 70 1006.3
20260506090013 62 228 2.6 8.7 0.00 0.00 0.00 69 1006.3
20260506085013 63 221 2.6 6.1 0.00 0.00 0.00 72 1006.4
20260506084013 63 185 2.6 6.1 0.00 0.00 0.00 72 1006.4
20260506083013 64 231 1.7 7.0 0.00 0.00 0.00 69 1006.3
20260506082014 64 127 2.6 8.7 0.00 0.00 0.00 69 1006.4
20260506081013 62 163 1.7 7.0 0.00 0.00 0.00 75 1006.4
20260506073013 58 186 1.7 6.1 0.00 0.00 0.00 81 1006.3
20260506072013 58 190 0.9 4.3 0.00 0.00 0.00 81 1006.2
20260506071012 58 183 1.7 5.2 0.00 0.00 0.00 81 1006.2
20260506062012 53 120 0.9 5.2 0.00 0.00 0.00 91 1006.3
20260506061012 53 111 0.0 3.5 0.00 0.00 0.00 92 1006.2
20260506051012 50 155 2.6 5.2 0.00 0.00 0.00 92 1006.7
20260506045012 49 164 2.6 4.3 0.00 0.00 0.00 92 1006.9
20260506044012 49 165 1.7 3.5 0.00 0.00 0.00 92 1006.8
20260506043012 49 165 1.7 3.5 0.00 0.00 0.00 91 1006.7
20260506042012 49 165 0.9 3.5 0.00 0.00 0.00 91 1006.6
20260506041012 49 165 2.6 4.3 0.00 0.00 0.00 91 1006.6
20260506040012 49 167 0.9 3.5 0.00 0.00 0.00 91 1006.6
20260506035012 49 168 1.7 4.3 0.00 0.00 0.00 91 1006.5
20260506034012 49 171 0.0 3.5 0.00 0.00 0.00 91 1006.5
20260506033012 49 174 0.0 1.7 0.00 0.00 0.00 91 1006.3
20260506032011 49 174 0.0 0.0 0.00 0.00 0.00 91 1006.4
20260506031012 50 174 0.0 0.0 0.00 0.00 0.00 90 1006.4
20260506030011 50 174 0.0 0.9 0.00 0.00 0.00 90 1006.5
20260506025012 50 174 0.0 1.7 0.00 0.00 0.00 90 1006.5
20260506024011 51 174 0.0 4.3 0.00 0.00 0.00 90 1006.6
20260506023011 51 174 0.0 2.6 0.00 0.00 0.00 90 1006.6
20260506022011 51 174 0.0 2.6 0.00 0.00 0.00 90 1006.7
20260506021011 52 174 0.9 2.6 0.00 0.00 0.00 90 1006.6
20260506020011 52 204 0.0 0.0 0.00 0.00 0.00 90 1006.6
20260506015011 52 204 0.0 0.9 0.00 0.00 0.00 91 1006.4
20260506014011 52 204 0.9 1.7 0.00 0.00 0.00 91 1006.4
20260506013011 52 204 0.0 2.6 0.00 0.00 0.00 91 1006.5
20260506012011 52 204 0.9 4.3 0.00 0.00 0.00 91 1006.7
20260506011011 52 203 0.9 3.5 0.00 0.00 0.00 91 1006.7
20260506010011 52 201 0.0 3.5 0.00 0.00 0.00 90 1006.7
20260506005011 52 202 0.9 3.5 0.00 0.00 0.00 90 1006.8
20260506004011 52 211 0.9 3.5 0.00 0.00 0.00 90 1006.7
20260506003011 52 207 0.0 1.7 0.00 0.00 0.00 90 1006.7
20260506002011 52 207 0.9 3.5 0.00 0.00 0.00 90 1006.8
20260506001011 53 207 1.7 4.3 0.00 0.00 0.00 90 1006.9
20260506000011 53 196 2.6 5.2 0.00 0.00 0.00 90 1007.0
20260505235011 53 200 0.9 3.5 0.00 0.00 0.00 90 1007.1
20260505234011 53 195 1.7 5.2 0.00 0.00 0.00 90 1007.2
20260505233011 53 174 1.7 6.1 0.00 0.00 0.00 90 1007.2
20260505232010 53 210 1.7 3.5 0.00 0.00 0.00 90 1007.2
20260505231011 53 211 1.7 4.3 0.00 0.00 0.00 90 1007.3
20260505230010 53 205 1.7 4.3 0.00 0.00 0.00 91 1007.3
20260505225011 53 192 1.7 4.3 0.00 0.00 0.00 90 1007.3
20260505224010 53 191 1.7 4.3 0.00 0.00 0.00 90 1007.3
20260505223010 53 205 0.9 3.5 0.00 0.00 0.00 90 1007.3
20260505222011 53 206 1.7 4.3 0.00 0.00 0.00 91 1007.4
20260505221011 53 207 0.9 3.5 0.00 0.00 0.00 91 1007.3
20260505220010 53 201 1.7 5.2 0.00 0.00 0.00 91 1007.3
20260505215010 53 207 0.0 1.7 0.00 0.08 0.08 90 1007.3
20260505214011 53 207 0.9 1.7 0.00 0.08 0.08 90 1007.3
20260505213011 53 207 0.9 3.5 0.00 0.08 0.08 90 1007.3
20260505212009 53 238 0.0 2.6 0.00 0.08 0.08 89 1007.4
20260505211010 53 238 0.0 2.6 0.00 0.08 0.08 89 1007.4
20260505210011 53 238 0.0 2.6 0.00 0.08 0.08 89 1007.3
20260505205011 54 238 0.0 1.7 0.00 0.08 0.08 89 1007.1
20260505204010 54 239 0.0 0.9 0.00 0.08 0.08 86 1006.7
20260505203010 54 239 0.0 2.6 0.00 0.08 0.08 86 1006.8
20260505202010 54 239 0.0 2.6 0.00 0.08 0.08 86 1006.8
20260505201010 54 239 0.9 3.5 0.00 0.08 0.08 85 1006.8
20260505200010 54 239 0.9 3.5 0.00 0.08 0.08 85 1006.8
20260505195011 55 220 0.9 2.6 0.00 0.08 0.08 86 1006.7
20260505194014 55 219 1.7 4.3 0.00 0.08 0.08 86 1006.9
20260505193014 55 237 1.7 4.3 0.00 0.08 0.08 86 1006.8
20260505192014 56 219 0.9 4.3 0.00 0.08 0.08 86 1006.8
20260505191014 56 230 1.7 7.0 0.00 0.08 0.08 86 1006.8
20260505190014 56 270 2.6 6.1 0.00 0.08 0.08 84 1006.5
20260505185014 56 247 3.5 7.8 0.00 0.08 0.08 84 1006.4
20260505184014 56 244 3.5 7.8 0.00 0.08 0.08 84 1006.3
20260505183014 56 238 3.5 7.8 0.00 0.08 0.08 84 1006.2
20260505182013 56 265 3.5 8.7 0.00 0.08 0.08 84 1006.0
20260505181013 57 260 4.3 8.7 0.00 0.08 0.08 84 1006.1
20260505180013 57 248 5.2 12.2 0.00 0.08 0.08 85 1005.9
20260505175013 57 234 3.5 7.0 0.00 0.08 0.08 85 1006.2
20260505174013 57 231 2.6 8.7 0.01 0.08 0.08 85 1006.1
20260505173014 57 238 1.7 5.2 0.02 0.08 0.08 85 1006.0
20260505172013 57 251 1.7 6.1 0.02 0.08 0.08 84 1005.9
20260505171013 57 266 3.5 9.6 0.04 0.08 0.08 83 1005.7
20260505170013 57 268 2.6 10.4 0.06 0.08 0.08 83 1005.7
20260505165013 57 227 1.7 4.3 0.06 0.08 0.08 81 1005.8
20260505164013 57 225 2.6 7.8 0.06 0.07 0.07 79 1006.0
20260505163013 57 258 4.3 11.3 0.06 0.06 0.06 77 1006.2
20260505162012 58 221 4.3 13.0 0.06 0.06 0.06 76 1006.3
20260505161013 58 239 4.3 11.3 0.04 0.04 0.04 74 1006.3
20260505153012 62 210 8.7 20.0 0.01 0.01 0.01 65 1005.9
20260505152012 67 200 7.8 21.7 0.00 0.00 0.00 59 1005.6
20260505151013 69 211 1.7 3.5 0.00 0.00 0.00 51 1004.7
20260505125012 76 145 1.7 3.5 0.00 0.00 0.00 40 1005.2
20260505124012 75 223 2.6 6.1 0.00 0.00 0.00 40 1005.4
20260505123012 75 278 2.6 7.0 0.00 0.00 0.00 46 1005.4
20260505122013 77 244 1.7 6.1 0.00 0.00 0.00 38 1005.6
20260505121012 76 215 1.7 4.3 0.00 0.00 0.00 39 1005.6
20260505120012 76 252 2.6 7.8 0.00 0.00 0.00 41 1005.7
20260505115012 76 294 1.7 7.0 0.00 0.00 0.00 44 1005.9
20260505114011 76 327 3.5 8.7 0.00 0.00 0.00 44 1005.9
20260505113012 74 242 2.6 7.0 0.00 0.00 0.00 45 1006.0
20260505112012 74 288 1.7 7.8 0.00 0.00 0.00 45 1006.0
20260505111012 74 92 1.7 5.2 0.00 0.00 0.00 45 1006.1